owner,sensor,date,latitude,longitude,vertical_datum,mass_concentration_of_oxygen_in_sea_water,qcFlag 
DISL,ioos:station:DISL:MHPA:1,2013-12-01T00:00:00Z,30.6671,-87.9365,3.84,8.72,1111122 
DISL,ioos:station:DISL:MHPA:1,2013-12-01T00:30:00Z,30.6671,-87.9365,3.911,8.63,1111122 
DISL,ioos:station:DISL:MHPA:1,2013-12-01T01:00:00Z,30.6671,-87.9365,3.985,8.33,1111122 
DISL,ioos:station:DISL:MHPA:1,2013-12-01T01:30:00Z,30.6671,-87.9365,4.06,8.5,1111122 
DISL,ioos:station:DISL:MHPA:1,2013-12-01T02:00:00Z,30.6671,-87.9365,4.092,8.61,1111122 
DISL,ioos:station:DISL:MHPA:1,2013-12-01T02:30:00Z,30.6671,-87.9365,4.123,8.64,1111122 
DISL,ioos:station:DISL:MHPA:1,2013-12-01T03:00:00Z,30.6671,-87.9365,4.19,8.4,1111122 
DISL,ioos:station:DISL:MHPA:1,2013-12-01T03:30:00Z,30.6671,-87.9365,4.17,8.31,1111122 
DISL,ioos:station:DISL:MHPA:1,2013-12-01T04:00:00Z,30.6671,-87.9365,4.084,8.29,1111122 
DISL,ioos:station:DISL:MHPA:1,2013-12-01T04:30:00Z,30.6671,-87.9365,4.042,8.18,1111122 
DISL,ioos:station:DISL:MHPA:1,2013-12-01T05:00:00Z,30.6671,-87.9365,3.933,8.23,1111122 
DISL,ioos:station:DISL:MHPA:1,2013-12-01T05:30:00Z,30.6671,-87.9365,3.817,8.49,1111122 
DISL,ioos:station:DISL:MHPA:1,2013-12-01T06:00:00Z,30.6671,-87.9365,3.713,8.5,1111122 
DISL,ioos:station:DISL:MHPA:1,2013-12-01T06:30:00Z,30.6671,-87.9365,3.599,8.47,1111122 
DISL,ioos:station:DISL:MHPA:1,2013-12-01T07:00:00Z,30.6671,-87.9365,3.454,8.6,1111122 
DISL,ioos:station:DISL:MHPA:1,2013-12-01T07:30:00Z,30.6671,-87.9365,3.327,8.17,1111122 
DISL,ioos:station:DISL:MHPA:1,2013-12-01T08:00:00Z,30.6671,-87.9365,3.208,8.19,1111122 
DISL,ioos:station:DISL:MHPA:1,2013-12-01T08:30:00Z,30.6671,-87.9365,3.071,8.42,1111122 
DISL,ioos:station:DISL:MHPA:1,2013-12-01T09:00:00Z,30.6671,-87.9365,2.948,7.95,1111122 
DISL,ioos:station:DISL:MHPA:1,2013-12-01T09:30:00Z,30.6671,-87.9365,2.827,8.16,1111122 
DISL,ioos:station:DISL:MHPA:1,2013-12-01T10:00:00Z,30.6671,-87.9365,2.723,7.69,1111122 
DISL,ioos:station:DISL:MHPA:1,2013-12-01T10:30:00Z,30.6671,-87.9365,2.627,7.77,1111122 
DISL,ioos:station:DISL:MHPA:1,2013-12-01T11:00:00Z,30.6671,-87.9365,2.536,7.83,1111122 
DISL,ioos:station:DISL:MHPA:1,2013-12-01T11:30:00Z,30.6671,-87.9365,2.456,7.71,1111122 
DISL,ioos:station:DISL:MHPA:1,2013-12-01T12:00:00Z,30.6671,-87.9365,2.383,7.72,1111122 
DISL,ioos:station:DISL:MHPA:1,2013-12-01T12:30:00Z,30.6671,-87.9365,2.314,7.49,1111122 
DISL,ioos:station:DISL:MHPA:1,2013-12-01T13:00:00Z,30.6671,-87.9365,2.252,7.4,1111122 
DISL,ioos:station:DISL:MHPA:1,2013-12-01T13:30:00Z,30.6671,-87.9365,2.194,7.13,1111122 
DISL,ioos:station:DISL:MHPA:1,2013-12-01T14:00:00Z,30.6671,-87.9365,2.145,7.43,1111122 
DISL,ioos:station:DISL:MHPA:1,2013-12-01T14:30:00Z,30.6671,-87.9365,2.103,7.61,1111122 
DISL,ioos:station:DISL:MHPA:1,2013-12-01T15:00:00Z,30.6671,-87.9365,2.066,7.54,1111122 
DISL,ioos:station:DISL:MHPA:1,2013-12-01T15:30:00Z,30.6671,-87.9365,2.055,8.41,1111122 
DISL,ioos:station:DISL:MHPA:1,2013-12-01T16:00:00Z,30.6671,-87.9365,2.092,7.64,1111122 
DISL,ioos:station:DISL:MHPA:1,2013-12-01T16:30:00Z,30.6671,-87.9365,2.164,7.71,1111122 
DISL,ioos:station:DISL:MHPA:1,2013-12-01T17:00:00Z,30.6671,-87.9365,2.284,8.28,1111122 
DISL,ioos:station:DISL:MHPA:1,2013-12-01T17:30:00Z,30.6671,-87.9365,2.445,8.54,1111122 
DISL,ioos:station:DISL:MHPA:1,2013-12-01T18:00:00Z,30.6671,-87.9365,2.666,8.65,1111122 
DISL,ioos:station:DISL:MHPA:1,2013-12-01T18:30:00Z,30.6671,-87.9365,2.921,7.99,1111122 
DISL,ioos:station:DISL:MHPA:1,2013-12-01T19:00:00Z,30.6671,-87.9365,3.098,8.36,1111122 
DISL,ioos:station:DISL:MHPA:1,2013-12-01T19:30:00Z,30.6671,-87.9365,3.187,7.86,1111122 
DISL,ioos:station:DISL:MHPA:1,2013-12-01T20:00:00Z,30.6671,-87.9365,3.314,8.13,1111122 
DISL,ioos:station:DISL:MHPA:1,2013-12-01T20:30:00Z,30.6671,-87.9365,3.458,8.93,1111122 
DISL,ioos:station:DISL:MHPA:1,2013-12-01T21:00:00Z,30.6671,-87.9365,3.532,8.65,1111122 
DISL,ioos:station:DISL:MHPA:1,2013-12-01T21:30:00Z,30.6671,-87.9365,3.685,8.34,1111122 
DISL,ioos:station:DISL:MHPA:1,2013-12-01T22:00:00Z,30.6671,-87.9365,3.788,8.41,1111122 
DISL,ioos:station:DISL:MHPA:1,2013-12-01T22:30:00Z,30.6671,-87.9365,3.886,8.55,1111122 
DISL,ioos:station:DISL:MHPA:1,2013-12-01T23:00:00Z,30.6671,-87.9365,4.035,8.03,1111122 
DISL,ioos:station:DISL:MHPA:1,2013-12-01T23:30:00Z,30.6671,-87.9365,4.145,7.85,1111122 
DISL,ioos:station:DISL:MHPA:1,2013-12-02T00:00:00Z,30.6671,-87.9365,4.221,7.99,1111122 
DISL,ioos:station:DISL:MHPA:1,2013-12-02T00:30:00Z,30.6671,-87.9365,4.341,8.36,1111122 
DISL,ioos:station:DISL:MHPA:1,2013-12-02T01:00:00Z,30.6671,-87.9365,4.45,7.85,1111122 
DISL,ioos:station:DISL:MHPA:1,2013-12-02T01:30:00Z,30.6671,-87.9365,4.515,8.12,1111122 
DISL,ioos:station:DISL:MHPA:1,2013-12-02T02:00:00Z,30.6671,-87.9365,4.611,8.33,1111122 
DISL,ioos:station:DISL:MHPA:1,2013-12-02T02:30:00Z,30.6671,-87.9365,4.716,8.44,1111122 
DISL,ioos:station:DISL:MHPA:1,2013-12-02T03:00:00Z,30.6671,-87.9365,4.762,8.09,1111122 
DISL,ioos:station:DISL:MHPA:1,2013-12-02T03:30:00Z,30.6671,-87.9365,4.8,7.83,1111122 
DISL,ioos:station:DISL:MHPA:1,2013-12-02T04:00:00Z,30.6671,-87.9365,4.81,7.55,1111122 
DISL,ioos:station:DISL:MHPA:1,2013-12-02T04:30:00Z,30.6671,-87.9365,4.763,7.63,1111122 
DISL,ioos:station:DISL:MHPA:1,2013-12-02T05:00:00Z,30.6671,-87.9365,4.702,7.53,1111122 
DISL,ioos:station:DISL:MHPA:1,2013-12-02T05:30:00Z,30.6671,-87.9365,4.601,7.53,1111122 
DISL,ioos:station:DISL:MHPA:1,2013-12-02T06:00:00Z,30.6671,-87.9365,4.488,7.2,1111122 
DISL,ioos:station:DISL:MHPA:1,2013-12-02T06:30:00Z,30.6671,-87.9365,4.332,7.37,1111122 
DISL,ioos:station:DISL:MHPA:1,2013-12-02T07:00:00Z,30.6671,-87.9365,4.172,6.76,1111122 
DISL,ioos:station:DISL:MHPA:1,2013-12-02T07:30:00Z,30.6671,-87.9365,4.001,6.95,1111122 
DISL,ioos:station:DISL:MHPA:1,2013-12-02T08:00:00Z,30.6671,-87.9365,3.846,6.79,1111122 
DISL,ioos:station:DISL:MHPA:1,2013-12-02T08:30:00Z,30.6671,-87.9365,3.691,6.78,1111122 
DISL,ioos:station:DISL:MHPA:1,2013-12-02T09:00:00Z,30.6671,-87.9365,3.526,6.77,1111122 
DISL,ioos:station:DISL:MHPA:1,2013-12-02T09:30:00Z,30.6671,-87.9365,3.383,6.74,1111122 
DISL,ioos:station:DISL:MHPA:1,2013-12-02T10:00:00Z,30.6671,-87.9365,3.261,6.52,1111122 
DISL,ioos:station:DISL:MHPA:1,2013-12-02T10:30:00Z,30.6671,-87.9365,3.135,6.51,1111122 
DISL,ioos:station:DISL:MHPA:1,2013-12-02T11:00:00Z,30.6671,-87.9365,3.033,6.58,1111122 
DISL,ioos:station:DISL:MHPA:1,2013-12-02T11:30:00Z,30.6671,-87.9365,2.921,6.83,1111122 
DISL,ioos:station:DISL:MHPA:1,2013-12-02T12:00:00Z,30.6671,-87.9365,2.807,6.98,1111122 
DISL,ioos:station:DISL:MHPA:1,2013-12-02T12:30:00Z,30.6671,-87.9365,2.717,6.84,1111122 
DISL,ioos:station:DISL:MHPA:1,2013-12-02T13:00:00Z,30.6671,-87.9365,2.634,7.11,1111122 
DISL,ioos:station:DISL:MHPA:1,2013-12-02T13:30:00Z,30.6671,-87.9365,2.555,7.1,1111122 
DISL,ioos:station:DISL:MHPA:1,2013-12-02T14:00:00Z,30.6671,-87.9365,2.488,6.95,1111122 
DISL,ioos:station:DISL:MHPA:1,2013-12-02T14:30:00Z,30.6671,-87.9365,2.43,6.91,1111122 
DISL,ioos:station:DISL:MHPA:1,2013-12-02T15:00:00Z,30.6671,-87.9365,2.373,6.93,1111122 
DISL,ioos:station:DISL:MHPA:1,2013-12-02T15:30:00Z,30.6671,-87.9365,2.327,6.77,1111122 
DISL,ioos:station:DISL:MHPA:1,2013-12-02T16:00:00Z,30.6671,-87.9365,2.3,7.05,1111122 
DISL,ioos:station:DISL:MHPA:1,2013-12-02T16:30:00Z,30.6671,-87.9365,2.291,7.59,1111122 
DISL,ioos:station:DISL:MHPA:1,2013-12-02T17:00:00Z,30.6671,-87.9365,2.319,7.11,1111122 
DISL,ioos:station:DISL:MHPA:1,2013-12-02T17:30:00Z,30.6671,-87.9365,2.398,7.59,1111122 
DISL,ioos:station:DISL:MHPA:1,2013-12-02T18:00:00Z,30.6671,-87.9365,2.515,8.12,1111122 
DISL,ioos:station:DISL:MHPA:1,2013-12-02T18:30:00Z,30.6671,-87.9365,2.678,7.82,1111122 
DISL,ioos:station:DISL:MHPA:1,2013-12-02T19:00:00Z,30.6671,-87.9365,2.89,7.76,1111122 
DISL,ioos:station:DISL:MHPA:1,2013-12-02T19:30:00Z,30.6671,-87.9365,3.131,7.8,1111122 
DISL,ioos:station:DISL:MHPA:1,2013-12-02T20:00:00Z,30.6671,-87.9365,3.31,7.03,1111122 
DISL,ioos:station:DISL:MHPA:1,2013-12-02T20:30:00Z,30.6671,-87.9365,3.468,7.65,1111122 
DISL,ioos:station:DISL:MHPA:1,2013-12-02T21:00:00Z,30.6671,-87.9365,3.602,8.52,1111122 
DISL,ioos:station:DISL:MHPA:1,2013-12-02T21:30:00Z,30.6671,-87.9365,3.726,9.2,1111122 
DISL,ioos:station:DISL:MHPA:1,2013-12-02T22:00:00Z,30.6671,-87.9365,3.902,8.53,1111122 
DISL,ioos:station:DISL:MHPA:1,2013-12-02T22:30:00Z,30.6671,-87.9365,4.055,8.52,1111122 
DISL,ioos:station:DISL:MHPA:1,2013-12-02T23:00:00Z,30.6671,-87.9365,4.116,6.96,1111122 
DISL,ioos:station:DISL:MHPA:1,2013-12-02T23:30:00Z,30.6671,-87.9365,4.179,7.41,1111122 
DISL,ioos:station:DISL:MHPA:1,2013-12-03T00:00:00Z,30.6671,-87.9365,4.35,9.12,1111122 
DISL,ioos:station:DISL:MHPA:1,2013-12-03T00:30:00Z,30.6671,-87.9365,4.489,9.2,1111122 
DISL,ioos:station:DISL:MHPA:1,2013-12-03T01:00:00Z,30.6671,-87.9365,4.612,8.74,1111122 
DISL,ioos:station:DISL:MHPA:1,2013-12-03T01:30:00Z,30.6671,-87.9365,4.742,8.41,1111122 
DISL,ioos:station:DISL:MHPA:1,2013-12-03T02:00:00Z,30.6671,-87.9365,4.859,8.69,1111122 
DISL,ioos:station:DISL:MHPA:1,2013-12-03T02:30:00Z,30.6671,-87.9365,4.977,8.69,1111122 
DISL,ioos:station:DISL:MHPA:1,2013-12-03T03:00:00Z,30.6671,-87.9365,5.111,8.57,1111122 
DISL,ioos:station:DISL:MHPA:1,2013-12-03T03:30:00Z,30.6671,-87.9365,5.191,8.37,1111122 
DISL,ioos:station:DISL:MHPA:1,2013-12-03T04:00:00Z,30.6671,-87.9365,5.253,7.83,1111122 
DISL,ioos:station:DISL:MHPA:1,2013-12-03T04:30:00Z,30.6671,-87.9365,5.294,8.4,1111122 
DISL,ioos:station:DISL:MHPA:1,2013-12-03T05:00:00Z,30.6671,-87.9365,5.305,8.16,1111122 
DISL,ioos:station:DISL:MHPA:1,2013-12-03T05:30:00Z,30.6671,-87.9365,5.292,8.22,1111122 
DISL,ioos:station:DISL:MHPA:1,2013-12-03T06:00:00Z,30.6671,-87.9365,5.282,7.76,1111122 
DISL,ioos:station:DISL:MHPA:1,2013-12-03T06:30:00Z,30.6671,-87.9365,5.175,8.41,1111122 
DISL,ioos:station:DISL:MHPA:1,2013-12-03T07:00:00Z,30.6671,-87.9365,5.082,8.23,1111122 
DISL,ioos:station:DISL:MHPA:1,2013-12-03T07:30:00Z,30.6671,-87.9365,4.928,8.1,1111122 
DISL,ioos:station:DISL:MHPA:1,2013-12-03T08:00:00Z,30.6671,-87.9365,4.77,8.28,1111122 
DISL,ioos:station:DISL:MHPA:1,2013-12-03T08:30:00Z,30.6671,-87.9365,4.602,8.1,1111122 
DISL,ioos:station:DISL:MHPA:1,2013-12-03T09:00:00Z,30.6671,-87.9365,4.412,7.78,1111122 
DISL,ioos:station:DISL:MHPA:1,2013-12-03T09:30:00Z,30.6671,-87.9365,4.236,7.27,1111122 
DISL,ioos:station:DISL:MHPA:1,2013-12-03T10:00:00Z,30.6671,-87.9365,4.073,7.77,1111122 
DISL,ioos:station:DISL:MHPA:1,2013-12-03T10:30:00Z,30.6671,-87.9365,3.948,7.81,1111122 
DISL,ioos:station:DISL:MHPA:1,2013-12-03T11:00:00Z,30.6671,-87.9365,3.822,7.39,1111122 
DISL,ioos:station:DISL:MHPA:1,2013-12-03T11:30:00Z,30.6671,-87.9365,3.721,7.52,1111122 
DISL,ioos:station:DISL:MHPA:1,2013-12-03T12:00:00Z,30.6671,-87.9365,3.618,7.58,1111122 
DISL,ioos:station:DISL:MHPA:1,2013-12-03T12:30:00Z,30.6671,-87.9365,3.491,7.4,1111122 
DISL,ioos:station:DISL:MHPA:1,2013-12-03T13:00:00Z,30.6671,-87.9365,3.385,7.09,1111122 
DISL,ioos:station:DISL:MHPA:1,2013-12-03T13:30:00Z,30.6671,-87.9365,3.291,7.2,1111122 
DISL,ioos:station:DISL:MHPA:1,2013-12-03T14:00:00Z,30.6671,-87.9365,3.198,7.14,1111122 
DISL,ioos:station:DISL:MHPA:1,2013-12-03T14:30:00Z,30.6671,-87.9365,3.125,7.3,1111122 
DISL,ioos:station:DISL:MHPA:1,2013-12-03T15:00:00Z,30.6671,-87.9365,3.071,7.14,1111122 
DISL,ioos:station:DISL:MHPA:1,2013-12-03T15:30:00Z,30.6671,-87.9365,3.011,7.75,1111122 
DISL,ioos:station:DISL:MHPA:1,2013-12-03T16:00:00Z,30.6671,-87.9365,2.976,8.38,1111122 
DISL,ioos:station:DISL:MHPA:1,2013-12-03T16:30:00Z,30.6671,-87.9365,2.942,8.45,1111122 
DISL,ioos:station:DISL:MHPA:1,2013-12-03T17:00:00Z,30.6671,-87.9365,2.912,8.58,1111122 
DISL,ioos:station:DISL:MHPA:1,2013-12-03T17:30:00Z,30.6671,-87.9365,2.932,8.7,1111122 
DISL,ioos:station:DISL:MHPA:1,2013-12-03T18:00:00Z,30.6671,-87.9365,2.969,8.79,1111122 
DISL,ioos:station:DISL:MHPA:1,2013-12-03T18:30:00Z,30.6671,-87.9365,3.056,8.99,1111122 
DISL,ioos:station:DISL:MHPA:1,2013-12-03T19:00:00Z,30.6671,-87.9365,3.173,8.81,1111122 
DISL,ioos:station:DISL:MHPA:1,2013-12-03T19:30:00Z,30.6671,-87.9365,3.325,8.85,1111122 
DISL,ioos:station:DISL:MHPA:1,2013-12-03T20:00:00Z,30.6671,-87.9365,3.455,8.62,1111122 
DISL,ioos:station:DISL:MHPA:1,2013-12-03T20:30:00Z,30.6671,-87.9365,3.599,8.52,1111122 
DISL,ioos:station:DISL:MHPA:1,2013-12-03T21:00:00Z,30.6671,-87.9365,3.743,8.43,1111122 
DISL,ioos:station:DISL:MHPA:1,2013-12-03T21:30:00Z,30.6671,-87.9365,3.852,8.8,1111122 
DISL,ioos:station:DISL:MHPA:1,2013-12-03T22:00:00Z,30.6671,-87.9365,3.972,8.8,1111122 
DISL,ioos:station:DISL:MHPA:1,2013-12-03T22:30:00Z,30.6671,-87.9365,4.09,8.69,1111122 
DISL,ioos:station:DISL:MHPA:1,2013-12-03T23:00:00Z,30.6671,-87.9365,4.186,8.76,1111122 
DISL,ioos:station:DISL:MHPA:1,2013-12-03T23:30:00Z,30.6671,-87.9365,4.29,8.95,1111122 
DISL,ioos:station:DISL:MHPA:1,2013-12-04T00:00:00Z,30.6671,-87.9365,4.393,8.43,1111122 
DISL,ioos:station:DISL:MHPA:1,2013-12-04T00:30:00Z,30.6671,-87.9365,4.467,8.97,1111122 
DISL,ioos:station:DISL:MHPA:1,2013-12-04T01:00:00Z,30.6671,-87.9365,4.551,8.11,1111122 
DISL,ioos:station:DISL:MHPA:1,2013-12-04T01:30:00Z,30.6671,-87.9365,4.654,8.61,1111122 
DISL,ioos:station:DISL:MHPA:1,2013-12-04T02:00:00Z,30.6671,-87.9365,4.81,8.62,1111122 
DISL,ioos:station:DISL:MHPA:1,2013-12-04T02:30:00Z,30.6671,-87.9365,4.938,8.58,1111122 
DISL,ioos:station:DISL:MHPA:1,2013-12-04T03:00:00Z,30.6671,-87.9365,5.034,8.44,1111122 
DISL,ioos:station:DISL:MHPA:1,2013-12-04T03:30:00Z,30.6671,-87.9365,5.16,8.53,1111122 
DISL,ioos:station:DISL:MHPA:1,2013-12-04T04:00:00Z,30.6671,-87.9365,5.223,8.59,1111122 
DISL,ioos:station:DISL:MHPA:1,2013-12-04T04:30:00Z,30.6671,-87.9365,5.317,8.66,1111122 
DISL,ioos:station:DISL:MHPA:1,2013-12-04T05:00:00Z,30.6671,-87.9365,5.346,8.54,1111122 
DISL,ioos:station:DISL:MHPA:1,2013-12-04T05:30:00Z,30.6671,-87.9365,5.322,8.57,1111122 
DISL,ioos:station:DISL:MHPA:1,2013-12-04T06:00:00Z,30.6671,-87.9365,5.304,7.79,1111122 
DISL,ioos:station:DISL:MHPA:1,2013-12-04T06:30:00Z,30.6671,-87.9365,5.236,7.74,1111122 
DISL,ioos:station:DISL:MHPA:1,2013-12-04T07:00:00Z,30.6671,-87.9365,5.153,7.9,1111122 
DISL,ioos:station:DISL:MHPA:1,2013-12-04T07:30:00Z,30.6671,-87.9365,5.055,7.9,1111122 
DISL,ioos:station:DISL:MHPA:1,2013-12-04T08:00:00Z,30.6671,-87.9365,4.956,7.67,1111122 
DISL,ioos:station:DISL:MHPA:1,2013-12-04T08:30:00Z,30.6671,-87.9365,4.789,7.95,1111122 
DISL,ioos:station:DISL:MHPA:1,2013-12-04T09:00:00Z,30.6671,-87.9365,4.642,7.79,1111122 
DISL,ioos:station:DISL:MHPA:1,2013-12-04T09:30:00Z,30.6671,-87.9365,4.485,7.47,1111122 
DISL,ioos:station:DISL:MHPA:1,2013-12-04T10:00:00Z,30.6671,-87.9365,4.321,7.62,1111122 
DISL,ioos:station:DISL:MHPA:1,2013-12-04T10:30:00Z,30.6671,-87.9365,4.17,7.4,1111122 
DISL,ioos:station:DISL:MHPA:1,2013-12-04T11:00:00Z,30.6671,-87.9365,4.025,7.32,1111122 
DISL,ioos:station:DISL:MHPA:1,2013-12-04T11:30:00Z,30.6671,-87.9365,3.872,7.49,1111122 
DISL,ioos:station:DISL:MHPA:1,2013-12-04T12:00:00Z,30.6671,-87.9365,3.74,7.59,1111122 
DISL,ioos:station:DISL:MHPA:1,2013-12-04T12:30:00Z,30.6671,-87.9365,3.613,7.5,1111122 
DISL,ioos:station:DISL:MHPA:1,2013-12-04T13:00:00Z,30.6671,-87.9365,3.49,7.71,1111122 
DISL,ioos:station:DISL:MHPA:1,2013-12-04T13:30:00Z,30.6671,-87.9365,3.378,7.87,1111122 
DISL,ioos:station:DISL:MHPA:1,2013-12-04T14:00:00Z,30.6671,-87.9365,3.28,7.66,1111122 
DISL,ioos:station:DISL:MHPA:1,2013-12-04T14:30:00Z,30.6671,-87.9365,3.19,7.14,1111122 
DISL,ioos:station:DISL:MHPA:1,2013-12-04T15:00:00Z,30.6671,-87.9365,3.098,7.3,1111122 
DISL,ioos:station:DISL:MHPA:1,2013-12-04T15:30:00Z,30.6671,-87.9365,3.017,7.23,1111122 
DISL,ioos:station:DISL:MHPA:1,2013-12-04T16:00:00Z,30.6671,-87.9365,2.951,8.16,1111122 
DISL,ioos:station:DISL:MHPA:1,2013-12-04T16:30:00Z,30.6671,-87.9365,2.899,7.91,1111122 
DISL,ioos:station:DISL:MHPA:1,2013-12-04T17:00:00Z,30.6671,-87.9365,2.886,7.47,1111122 
DISL,ioos:station:DISL:MHPA:1,2013-12-04T17:30:00Z,30.6671,-87.9365,2.861,7.74,1111122 
DISL,ioos:station:DISL:MHPA:1,2013-12-04T18:00:00Z,30.6671,-87.9365,2.903,7.84,1111122 
DISL,ioos:station:DISL:MHPA:1,2013-12-04T18:30:00Z,30.6671,-87.9365,2.93,8.15,1111122 
DISL,ioos:station:DISL:MHPA:1,2013-12-04T19:00:00Z,30.6671,-87.9365,2.953,8.47,1111122 
DISL,ioos:station:DISL:MHPA:1,2013-12-04T19:30:00Z,30.6671,-87.9365,3.07,8.79,1111122 
DISL,ioos:station:DISL:MHPA:1,2013-12-04T20:00:00Z,30.6671,-87.9365,3.249,8.16,1111122 
DISL,ioos:station:DISL:MHPA:1,2013-12-04T20:30:00Z,30.6671,-87.9365,3.366,8.61,1111122 
DISL,ioos:station:DISL:MHPA:1,2013-12-04T21:00:00Z,30.6671,-87.9365,3.47,8.49,1111122 
DISL,ioos:station:DISL:MHPA:1,2013-12-04T21:30:00Z,30.6671,-87.9365,3.632,8.68,1111122 
DISL,ioos:station:DISL:MHPA:1,2013-12-04T22:00:00Z,30.6671,-87.9365,3.74,8.62,1111122 
DISL,ioos:station:DISL:MHPA:1,2013-12-04T22:30:00Z,30.6671,-87.9365,3.908,8.65,1111122 
DISL,ioos:station:DISL:MHPA:1,2013-12-04T23:00:00Z,30.6671,-87.9365,4.001,8.41,1111122 
DISL,ioos:station:DISL:MHPA:1,2013-12-04T23:30:00Z,30.6671,-87.9365,4.108,8.43,1111122 
DISL,ioos:station:DISL:MHPA:1,2013-12-05T00:00:00Z,30.6671,-87.9365,4.229,8.16,1111122 
DISL,ioos:station:DISL:MHPA:1,2013-12-05T00:30:00Z,30.6671,-87.9365,4.347,8.63,1111122 
DISL,ioos:station:DISL:MHPA:1,2013-12-05T01:00:00Z,30.6671,-87.9365,4.442,8.48,1111122 
DISL,ioos:station:DISL:MHPA:1,2013-12-05T01:30:00Z,30.6671,-87.9365,4.598,8.03,1111122 
DISL,ioos:station:DISL:MHPA:1,2013-12-05T02:00:00Z,30.6671,-87.9365,4.74,8.35,1111122 
DISL,ioos:station:DISL:MHPA:1,2013-12-05T02:30:00Z,30.6671,-87.9365,4.841,8.25,1111122 
DISL,ioos:station:DISL:MHPA:1,2013-12-05T03:00:00Z,30.6671,-87.9365,4.93,8.44,1111122 
DISL,ioos:station:DISL:MHPA:1,2013-12-05T03:30:00Z,30.6671,-87.9365,5.061,8.1,1111122 
DISL,ioos:station:DISL:MHPA:1,2013-12-05T04:00:00Z,30.6671,-87.9365,5.17,7.77,1111122 
DISL,ioos:station:DISL:MHPA:1,2013-12-05T04:30:00Z,30.6671,-87.9365,5.261,7.78,1111122 
DISL,ioos:station:DISL:MHPA:1,2013-12-05T05:00:00Z,30.6671,-87.9365,5.347,8.33,1111122 
DISL,ioos:station:DISL:MHPA:1,2013-12-05T05:30:00Z,30.6671,-87.9365,5.412,8.21,1111122 
DISL,ioos:station:DISL:MHPA:1,2013-12-05T06:00:00Z,30.6671,-87.9365,5.443,8.21,1111122 
DISL,ioos:station:DISL:MHPA:1,2013-12-05T06:30:00Z,30.6671,-87.9365,5.405,8.53,1111122 
DISL,ioos:station:DISL:MHPA:1,2013-12-05T07:00:00Z,30.6671,-87.9365,5.386,8.51,1111122 
DISL,ioos:station:DISL:MHPA:1,2013-12-05T07:30:00Z,30.6671,-87.9365,5.301,8.58,1111122 
DISL,ioos:station:DISL:MHPA:1,2013-12-05T08:00:00Z,30.6671,-87.9365,5.198,8.8,1111122 
DISL,ioos:station:DISL:MHPA:1,2013-12-05T08:30:00Z,30.6671,-87.9365,5.083,8.87,1111122 
DISL,ioos:station:DISL:MHPA:1,2013-12-05T09:00:00Z,30.6671,-87.9365,4.961,8.25,1111122 
DISL,ioos:station:DISL:MHPA:1,2013-12-05T09:30:00Z,30.6671,-87.9365,4.814,8.12,1111122 
DISL,ioos:station:DISL:MHPA:1,2013-12-05T10:00:00Z,30.6671,-87.9365,4.677,8.16,1111122 
DISL,ioos:station:DISL:MHPA:1,2013-12-05T10:30:00Z,30.6671,-87.9365,4.508,7.94,1111122 
DISL,ioos:station:DISL:MHPA:1,2013-12-05T11:00:00Z,30.6671,-87.9365,4.369,7.7,1111122 
DISL,ioos:station:DISL:MHPA:1,2013-12-05T11:30:00Z,30.6671,-87.9365,4.245,7.5,1111122 
DISL,ioos:station:DISL:MHPA:1,2013-12-05T12:00:00Z,30.6671,-87.9365,4.115,7.54,1111122 
DISL,ioos:station:DISL:MHPA:1,2013-12-05T12:30:00Z,30.6671,-87.9365,3.993,7.6,1111122 
DISL,ioos:station:DISL:MHPA:1,2013-12-05T13:00:00Z,30.6671,-87.9365,3.856,7.64,1111122 
DISL,ioos:station:DISL:MHPA:1,2013-12-05T13:30:00Z,30.6671,-87.9365,3.733,7.59,1111122 
DISL,ioos:station:DISL:MHPA:1,2013-12-05T14:00:00Z,30.6671,-87.9365,3.654,7.76,1111122 
DISL,ioos:station:DISL:MHPA:1,2013-12-05T14:30:00Z,30.6671,-87.9365,3.554,7.91,1111122 
DISL,ioos:station:DISL:MHPA:1,2013-12-05T15:00:00Z,30.6671,-87.9365,3.455,7.57,1111122 
DISL,ioos:station:DISL:MHPA:1,2013-12-05T15:30:00Z,30.6671,-87.9365,3.365,7.93,1111122 
DISL,ioos:station:DISL:MHPA:1,2013-12-05T16:00:00Z,30.6671,-87.9365,3.315,7.85,1111122 
DISL,ioos:station:DISL:MHPA:1,2013-12-05T16:30:00Z,30.6671,-87.9365,3.236,8.02,1111122 
DISL,ioos:station:DISL:MHPA:1,2013-12-05T17:00:00Z,30.6671,-87.9365,3.195,8.39,1111122 
DISL,ioos:station:DISL:MHPA:1,2013-12-05T17:30:00Z,30.6671,-87.9365,3.202,8.77,1111122 
DISL,ioos:station:DISL:MHPA:1,2013-12-05T18:00:00Z,30.6671,-87.9365,3.126,8.3,1111122 
DISL,ioos:station:DISL:MHPA:1,2013-12-05T18:30:00Z,30.6671,-87.9365,3.073,8.37,1111122 
DISL,ioos:station:DISL:MHPA:1,2013-12-05T19:00:00Z,30.6671,-87.9365,3.063,8.37,1111122 
DISL,ioos:station:DISL:MHPA:1,2013-12-05T19:30:00Z,30.6671,-87.9365,3.072,8.16,1111122 
DISL,ioos:station:DISL:MHPA:1,2013-12-05T20:00:00Z,30.6671,-87.9365,3.166,8.6,1111122 
DISL,ioos:station:DISL:MHPA:1,2013-12-05T20:30:00Z,30.6671,-87.9365,3.257,7.72,1111122 
DISL,ioos:station:DISL:MHPA:1,2013-12-05T21:00:00Z,30.6671,-87.9365,3.321,8.1,1111122 
DISL,ioos:station:DISL:MHPA:1,2013-12-05T21:30:00Z,30.6671,-87.9365,3.467,8.79,1111122 
DISL,ioos:station:DISL:MHPA:1,2013-12-05T22:00:00Z,30.6671,-87.9365,3.592,8.8,1111122 
DISL,ioos:station:DISL:MHPA:1,2013-12-05T22:30:00Z,30.6671,-87.9365,3.717,8.57,1111122 
DISL,ioos:station:DISL:MHPA:1,2013-12-05T23:00:00Z,30.6671,-87.9365,3.889,8.44,1111122 
DISL,ioos:station:DISL:MHPA:1,2013-12-05T23:30:00Z,30.6671,-87.9365,4.001,8.27,1111122 
DISL,ioos:station:DISL:MHPA:1,2013-12-06T00:00:00Z,30.6671,-87.9365,4.124,8.14,1111122 
DISL,ioos:station:DISL:MHPA:1,2013-12-06T00:30:00Z,30.6671,-87.9365,4.223,8.3,1111122 
DISL,ioos:station:DISL:MHPA:1,2013-12-06T01:00:00Z,30.6671,-87.9365,4.308,8.14,1111122 
DISL,ioos:station:DISL:MHPA:1,2013-12-06T01:30:00Z,30.6671,-87.9365,4.387,8.1,1111122 
DISL,ioos:station:DISL:MHPA:1,2013-12-06T02:00:00Z,30.6671,-87.9365,4.497,8.14,1111122 
DISL,ioos:station:DISL:MHPA:1,2013-12-06T02:30:00Z,30.6671,-87.9365,4.596,8.08,1111122 
DISL,ioos:station:DISL:MHPA:1,2013-12-06T03:00:00Z,30.6671,-87.9365,4.711,8.11,1111122 
DISL,ioos:station:DISL:MHPA:1,2013-12-06T03:30:00Z,30.6671,-87.9365,4.851,8.15,1111122 
DISL,ioos:station:DISL:MHPA:1,2013-12-06T04:00:00Z,30.6671,-87.9365,4.937,7.89,1111122 
DISL,ioos:station:DISL:MHPA:1,2013-12-06T04:30:00Z,30.6671,-87.9365,5.07,8.08,1111122 
DISL,ioos:station:DISL:MHPA:1,2013-12-06T05:00:00Z,30.6671,-87.9365,5.166,8.12,1111122 
DISL,ioos:station:DISL:MHPA:1,2013-12-06T05:30:00Z,30.6671,-87.9365,5.235,8.05,1111122 
DISL,ioos:station:DISL:MHPA:1,2013-12-06T06:00:00Z,30.6671,-87.9365,5.311,8.13,1111122 
DISL,ioos:station:DISL:MHPA:1,2013-12-06T06:30:00Z,30.6671,-87.9365,5.334,8.19,1111122 
DISL,ioos:station:DISL:MHPA:1,2013-12-06T07:00:00Z,30.6671,-87.9365,5.358,8.1,1111122 
DISL,ioos:station:DISL:MHPA:1,2013-12-06T07:30:00Z,30.6671,-87.9365,5.35,8.36,1111122 
DISL,ioos:station:DISL:MHPA:1,2013-12-06T08:00:00Z,30.6671,-87.9365,5.313,8.36,1111122 
DISL,ioos:station:DISL:MHPA:1,2013-12-06T08:30:00Z,30.6671,-87.9365,5.243,7.86,1111122 
DISL,ioos:station:DISL:MHPA:1,2013-12-06T09:00:00Z,30.6671,-87.9365,5.143,7.6,1111122 
DISL,ioos:station:DISL:MHPA:1,2013-12-06T09:30:00Z,30.6671,-87.9365,5.053,8.2,1111122 
DISL,ioos:station:DISL:MHPA:1,2013-12-06T10:00:00Z,30.6671,-87.9365,4.956,8.25,1111122 
DISL,ioos:station:DISL:MHPA:1,2013-12-06T10:30:00Z,30.6671,-87.9365,4.806,8.37,1111122 
DISL,ioos:station:DISL:MHPA:1,2013-12-06T11:00:00Z,30.6671,-87.9365,4.676,8.26,1111122 
DISL,ioos:station:DISL:MHPA:1,2013-12-06T11:30:00Z,30.6671,-87.9365,4.579,7.63,1111122 
DISL,ioos:station:DISL:MHPA:1,2013-12-06T12:00:00Z,30.6671,-87.9365,4.46,7.49,1111122 
DISL,ioos:station:DISL:MHPA:1,2013-12-06T12:30:00Z,30.6671,-87.9365,4.322,7.27,1111122 
DISL,ioos:station:DISL:MHPA:1,2013-12-06T13:00:00Z,30.6671,-87.9365,4.188,7.62,1111122 
DISL,ioos:station:DISL:MHPA:1,2013-12-06T13:30:00Z,30.6671,-87.9365,4.068,7.93,1111122 
DISL,ioos:station:DISL:MHPA:1,2013-12-06T14:00:00Z,30.6671,-87.9365,3.937,7.25,1111122 
DISL,ioos:station:DISL:MHPA:1,2013-12-06T14:30:00Z,30.6671,-87.9365,3.802,6.99,1111122 
DISL,ioos:station:DISL:MHPA:1,2013-12-06T15:00:00Z,30.6671,-87.9365,3.698,6.04,1111122 
DISL,ioos:station:DISL:MHPA:1,2013-12-06T15:30:00Z,30.6671,-87.9365,3.598,7.09,1111122 